DW6277 Weather Reports


Display with metric or nautical units.
time (UTC)temp
F
wind
direction
speed
MPH
gust
MPH
rain 1hr
in
rain 24hr
in
rain mn
in
humidity
%
barometer
mb
20220629061534 60 309 0.0 1.0 0.00 0.00 0.00 75 1022.9
20220629060524 60 328 0.0 4.0 0.00 0.00 0.00 75 1023.0
20220629055517 60 311 1.0 4.0 0.00 0.00 0.00 75 1023.1
20220629054525 60 316 0.0 4.0 0.00 0.00 0.00 76 1023.1
20220629053501 60 339 0.0 3.0 0.00 0.00 0.00 75 1023.0
20220629052429 60 327 0.0 1.0 0.00 0.00 0.00 74 1023.0
20220629051355 61 335 0.0 3.0 0.00 0.00 0.00 74 1023.0
20220629050331 61 11 1.0 5.0 0.00 0.00 0.00 74 1023.2
20220629045329 61 10 1.0 5.0 0.00 0.00 0.00 73 1023.2
20220629044311 63 23 0.0 1.0 0.00 0.00 0.00 71 1023.3
20220629043242 64 46 0.0 4.0 0.00 0.00 0.00 69 1023.4
20220629042304 63 278 0.0 4.0 0.00 0.00 0.00 69 1023.5
20220629041329 63 12 1.0 4.0 0.00 0.00 0.00 70 1023.6
20220629040310 63 346 1.0 4.0 0.00 0.00 0.00 70 1023.8
20220629035239 64 19 0.0 5.0 0.00 0.00 0.00 69 1023.8
20220629034256 62 347 0.0 5.0 0.00 0.00 0.00 72 1023.9
20220629033312 61 321 1.0 5.0 0.00 0.01 0.00 74 1023.9
20220629032315 61 212 1.0 6.0 0.00 0.01 0.00 75 1024.1
20220629031250 60 287 2.0 7.0 0.00 0.01 0.00 75 1024.3
20220629030303 60 307 3.0 7.0 0.00 0.01 0.00 75 1024.6
20220629025253 61 304 2.0 5.0 0.00 0.01 0.00 75 1024.8
20220629024220 61 310 1.0 5.0 0.00 0.01 0.00 75 1024.8
20220629023204 60 311 1.0 6.0 0.00 0.01 0.00 75 1025.0
20220629022228 60 297 1.0 6.0 0.00 0.01 0.00 75 1025.2
20220629021214 60 307 2.0 8.0 0.00 0.01 0.00 75 1025.4
20220629020217 60 293 2.0 8.0 0.00 0.01 0.00 76 1025.6
20220629015153 60 315 1.0 7.0 0.00 0.01 0.00 77 1025.8
20220629014155 59 304 3.0 7.0 0.00 0.01 0.00 78 1025.9
20220629013129 59 289 3.0 8.0 0.00 0.01 0.00 78 1026.0
20220629012144 59 315 4.0 9.0 0.00 0.01 0.00 79 1026.1
20220629011118 58 316 3.0 9.0 0.00 0.01 0.00 79 1026.2
20220629010114 58 306 4.0 9.0 0.00 0.01 0.00 80 1026.3
20220629005048 58 4 3.0 9.0 0.00 0.01 0.00 80 1026.4
20220629004036 58 254 4.0 10.0 0.00 0.01 0.00 81 1026.5
20220629003042 57 255 5.0 11.0 0.00 0.01 0.00 82 1026.6
20220629002008 56 290 5.0 11.0 0.00 0.02 0.00 84 1026.7
20220629000954 55 321 5.0 10.0 0.00 0.02 0.00 86 1026.7
20220628235928 55 283 4.0 10.0 0.00 0.02 0.00 88 1026.8
20220628234904 54 300 3.0 9.0 0.00 0.02 0.00 90 1026.8
20220628233837 53 304 3.0 9.0 0.00 0.01 0.00 91 1026.9
20220628232835 53 280 4.0 10.0 0.00 0.01 0.00 92 1027.0
20220628231833 52 314 4.0 12.0 0.00 0.01 0.00 93 1026.9
20220628230807 51 299 3.0 12.0 0.00 0.01 0.00 94 1026.7
20220628225816 51 304 3.0 8.0 0.00 0.01 0.00 95 1026.8
20220628224751 51 321 3.0 9.0 0.00 0.01 0.00 95 1026.8
20220628223816 50 295 3.0 9.0 0.00 0.01 0.00 96 1026.7
20220628222812 50 325 2.0 6.0 0.00 0.01 0.00 96 1026.6
20220628221807 49 316 2.0 6.0 0.00 0.01 0.00 96 1026.7
20220628220824 49 307 2.0 5.0 0.00 0.01 0.00 96 1026.7
20220628215816 48 316 2.0 5.0 0.00 0.01 0.00 96 1026.7
20220628214748 48 306 0.0 3.0 0.00 0.02 0.00 96 1026.7
20220628213719 48 302 0.0 3.0 0.00 0.02 0.00 96 1026.8
20220628212708 47 315 1.0 6.0 0.00 0.02 0.00 96 1026.9
20220628211709 47 290 2.0 6.0 0.00 0.03 0.00 96 1026.9
20220628210724 47 302 0.0 3.0 0.00 0.03 0.00 96 1026.8
20220628205716 47 299 1.0 3.0 0.00 0.03 0.00 95 1026.6
20220628204731 47 304 0.0 4.0 0.00 0.03 0.00 95 1026.6
20220628203754 47 294 2.0 4.0 0.00 0.03 0.00 95 1026.5
20220628202723 47 295 0.0 3.0 0.00 0.03 0.00 95 1026.4
20220628201655 47 306 0.0 3.0 0.00 0.03 0.00 95 1026.2
20220628200642 48 316 0.0 2.0 0.00 0.03 0.00 95 1026.2
20220628195653 48 290 0.0 2.0 0.00 0.03 0.00 95 1026.1
20220628194628 48 309 0.0 2.0 0.00 0.03 0.00 95 1026.1
20220628193649 48 305 0.0 4.0 0.00 0.03 0.00 95 1026.1
20220628192705 48 296 1.0 4.0 0.00 0.03 0.00 94 1026.1
20220628191724 48 314 1.0 3.0 0.00 0.03 0.00 94 1026.2
20220628190723 48 289 0.0 1.0 0.00 0.03 0.00 95 1026.0
20220628185746 48 289 0.0 1.0 0.00 0.03 0.00 94 1025.9
20220628184719 49 289 0.0 2.0 0.00 0.03 0.00 94 1025.6
20220628183713 49 289 0.0 1.0 0.00 0.03 0.00 93 1025.5
20220628182658 50 289 0.0 0.0 0.00 0.03 0.00 95 1025.5
20220628181624 49 289 0.0 0.0 0.00 0.03 0.00 93 1025.8
20220628180614 50 289 0.0 2.0 0.00 0.03 0.00 93 1025.9
20220628175552 50 289 0.0 1.0 0.00 0.03 0.00 93 1025.9
20220628174534 50 290 0.0 0.0 0.00 0.03 0.00 93 1026.1
20220628173537 51 290 0.0 1.0 0.00 0.03 0.00 93 1026.2
20220628172548 51 289 0.0 0.0 0.00 0.03 0.00 93 1026.4
20220628171518 51 289 0.0 3.0 0.00 0.03 0.00 93 1026.6
20220628170448 51 296 1.0 2.0 0.00 0.03 0.00 93 1026.7
20220628165510 51 295 0.0 1.0 0.00 0.03 0.00 93 1026.6
20220628164458 52 308 1.0 4.0 0.00 0.03 0.00 92 1026.4
20220628163433 52 305 0.0 2.0 0.00 0.03 0.00 92 1026.6
20220628162445 52 307 0.0 2.0 0.00 0.03 0.00 92 1026.6
20220628161429 52 297 0.0 4.0 0.00 0.03 0.00 92 1026.7
20220628160400 52 295 0.0 4.0 0.00 0.03 0.00 92 1027.0
20220628155418 52 292 0.0 3.0 0.00 0.03 0.00 92 1027.1
20220628154346 52 312 0.0 3.0 0.00 0.03 0.00 92 1027.2
20220628153315 52 316 0.0 4.0 0.00 0.03 0.00 92 1027.3
20220628152257 52 311 1.0 4.0 0.00 0.03 0.00 92 1027.2
20220628151314 52 309 0.0 4.0 0.00 0.04 0.00 92 1027.1
20220628150338 52 316 1.0 4.0 0.00 0.04 0.00 92 1027.2
20220628145305 52 308 1.0 4.0 0.00 0.04 0.00 91 1027.4
20220628144246 52 307 1.0 4.0 0.00 0.07 0.00 91 1027.4
20220628143305 53 278 0.0 4.0 0.00 0.07 0.00 90 1027.4
20220628142318 53 312 0.0 0.0 0.00 0.07 0.00 90 1027.4
20220628141258 53 312 0.0 0.0 0.00 0.08 0.00 90 1027.6
20220628140247 54 312 0.0 2.0 0.00 0.08 0.00 90 1027.6
20220628135248 54 297 0.0 4.0 0.00 0.08 0.08 89 1027.6
20220628134228 54 311 0.0 3.0 0.00 0.11 0.08 88 1027.5
20220628133237 55 316 0.0 0.0 0.00 0.11 0.08 88 1027.5
20220628132255 55 233 2.0 7.0 0.00 0.11 0.08 88 1027.5
20220628131232 55 180 2.0 7.0 0.00 0.12 0.08 89 1027.5
20220628130212 55 232 3.0 7.0 0.00 0.12 0.08 90 1027.7
20220628125149 54 208 1.0 6.0 0.00 0.15 0.08 90 1027.8
20220628124203 54 214 2.0 7.0 0.00 0.17 0.08 90 1027.7
20220628123156 54 213 2.0 7.0 0.00 0.20 0.08 90 1027.9
20220628122216 54 207 2.0 5.0 0.00 0.22 0.08 90 1027.9
20220628121214 54 218 2.0 7.0 0.00 0.23 0.08 90 1028.0
20220628120223 54 219 2.0 7.0 0.00 0.25 0.08 90 1028.0
20220628115156 54 233 3.0 7.0 0.00 0.25 0.08 90 1028.1
20220628114149 54 205 3.0 7.0 0.00 0.25 0.08 90 1028.1
20220628113156 54 225 3.0 9.0 0.00 0.25 0.08 89 1028.3
20220628112133 54 220 3.0 9.0 0.00 0.25 0.08 89 1028.2
20220628111151 54 193 3.0 8.0 0.00 0.25 0.08 89 1028.4
20220628110125 55 220 3.0 8.0 0.00 0.25 0.08 89 1028.4
20220628105142 55 246 2.0 8.0 0.00 0.25 0.08 89 1028.5
20220628104152 55 202 3.0 9.0 0.00 0.25 0.08 88 1028.4
20220628103159 56 230 3.0 9.0 0.00 0.25 0.08 88 1028.5
20220628102134 55 173 3.0 7.0 0.00 0.25 0.08 89 1028.4
20220628101113 55 214 3.0 8.0 0.00 0.25 0.08 90 1028.4
20220628100103 55 206 4.0 9.0 0.00 0.25 0.08 90 1028.4
20220628095115 55 161 3.0 15.0 0.00 0.25 0.08 90 1028.3
20220628094108 55 193 5.0 15.0 0.00 0.26 0.08 90 1028.4
20220628093102 55 237 5.0 12.0 0.00 0.26 0.08 90 1028.6
20220628092050 55 219 3.0 10.0 0.00 0.26 0.08 91 1028.6
20220628091050 55 227 4.0 10.0 0.00 0.28 0.08 91 1028.5
20220628090114 55 207 4.0 10.0 0.00 0.28 0.08 91 1028.5
20220628085115 55 214 3.0 8.0 0.00 0.28 0.08 91 1028.3
20220628084058 55 210 2.0 9.0 0.00 0.28 0.08 91 1028.3
20220628083040 55 250 1.0 8.0 0.00 0.28 0.08 91 1028.3
20220628082034 55 264 3.0 10.0 0.00 0.28 0.08 91 1028.2
20220628081013 55 231 3.0 10.0 0.00 0.28 0.08 90 1028.3
20220628080010 55 241 4.0 9.0 0.00 0.28 0.08 90 1028.2
20220628074953 55 240 3.0 9.0 0.00 0.28 0.08 90 1028.1
20220628073955 55 236 4.0 11.0 0.00 0.28 0.08 90 1027.9
20220628072926 55 204 4.0 11.0 0.00 0.28 0.08 90 1028.0
20220628071853 55 230 3.0 10.0 0.00 0.28 0.08 90 1027.8
20220628070838 56 262 4.0 10.0 0.00 0.28 0.08 90 1027.9
20220628065902 56 194 3.0 8.0 0.00 0.28 0.08 90 1027.8
20220628064920 56 241 1.0 7.0 0.00 0.28 0.08 89 1027.6
20220628063853 56 218 3.0 7.0 0.00 0.28 0.08 88 1027.7
20220628062821 56 217 3.0 8.0 0.00 0.28 0.08 88 1027.7